Change the Weather History Date:

Saturday, January 25, 2014

  Actual Average Record
Temperature  
Mean Temperature 81 °F -  
Max Temperature 87 °F 84 °F 100 °F (2013)
Min Temperature 75 °F 75 °F 73 °F (2012)
Cooling Degree Days 16    
Growing Degree Days 31 (Base 50)    
Moisture  
Dew Point 71 °F    
Average Humidity 73    
Maximum Humidity 89    
Minimum Humidity 53    
Precipitation  
Precipitation 0.00 in 0.04 in - ()
Sea Level Pressure  
Sea Level Pressure 29.93 in    
Wind  
Wind Speed 8 mph ()    
Max Wind Speed 15 mph    
Max Gust Speed -    
Visibility 6.2 miles    
Events      
Averages and records for this station are not official NWS values.
T = Trace of Precipitation, MM = Missing Value Source: Averaged Metar Reports

Daily Weather History Graph

Daily Weather History Graph

Search for Another Location

Airport or City:

Trip Planner

Search our weather history database for the weather conditions in past years. The results will help you decide how hot, cold, wet, or windy it might be!

Date:

Astronomy

Jan. 25, 2014 Rise Set
Actual Time 7:01 AM AST 6:35 PM AST
Civil Twilight 6:39 AM AST 6:57 PM AST
Nautical Twilight 6:13 AM AST 7:23 PM AST
Astronomical Twilight 5:47 AM AST 7:48 PM AST
Moon 1:35 AM AST (1/25) 1:30 PM AST (1/25)
Length of Visible Light 12h 18m
Length of Day
11h 33m
Waning Crescent, 34% of the Moon is Illuminated
Jan 25
Waning Crescent
Jan 30
New
Feb 6
First Quarter
Feb 14
Full
Feb 22
Last Quarter

Hourly Weather History & Observations

Time (AST) Temp. Heat Index Dew Point Humidity Pressure Visibility Wind Dir Wind Speed Gust Speed Precip Events Conditions
12:00 AM 78.8 °F - 71.6 °F 78% 29.98 in 6.2 mi ESE 11.5 mph - N/A   Partly Cloudy
1:00 AM 77.0 °F - 71.6 °F 83% 29.95 in 6.2 mi ESE 8.1 mph - N/A   Partly Cloudy
2:00 AM 76 °F - 71 °F 80% 29.94 in 25 mi ESE 8.1 mph - -   Partly Cloudy
2:00 AM 77.0 °F - 71.6 °F 83% 29.95 in 6.2 mi ESE 8.1 mph - N/A   Partly Cloudy
3:00 AM 75.2 °F - 69.8 °F 83% 29.92 in 6.2 mi ESE 8.1 mph - N/A   Partly Cloudy
4:00 AM 77.0 °F - 71.6 °F 83% 29.89 in 6.2 mi East 8.1 mph - N/A   Partly Cloudy
5:00 AM 76 °F - 70 °F 78% 29.91 in 25 mi ESE 8.1 mph - -   Partly Cloudy
5:00 AM 75.2 °F - 71.6 °F 89% 29.92 in 6.2 mi ESE 8.1 mph - N/A   Partly Cloudy
6:00 AM 75.2 °F - 69.8 °F 83% 29.92 in 6.2 mi ESE 6.9 mph - N/A   Partly Cloudy
7:00 AM 75.2 °F - 69.8 °F 83% 29.92 in 6.2 mi ESE 6.9 mph - N/A   Partly Cloudy
8:00 AM 78.8 °F - 69.8 °F 74% 29.95 in 6.2 mi ESE 6.9 mph - N/A   Partly Cloudy
10:00 AM 82.4 °F 87.2 °F 71.6 °F 70% 29.98 in 6.2 mi East 10.4 mph - N/A   Partly Cloudy
11:00 AM 84 °F - 71 °F 56% 29.98 in 25 mi East 11.5 mph - -   Scattered Clouds
11:00 AM 84.2 °F 89.6 °F 71.6 °F 66% 29.98 in 6.2 mi East 9.2 mph - N/A   Partly Cloudy
12:00 PM 84.2 °F 89.6 °F 71.6 °F 66% 29.98 in 6.2 mi East 10.4 mph - N/A   Partly Cloudy
1:00 PM 84.2 °F 87.3 °F 68.0 °F 58% 29.95 in 6.2 mi East 12.7 mph - N/A   Partly Cloudy
2:00 PM 85 °F - 70 °F 53% 29.92 in 25 mi ESE 15.0 mph - -   Scattered Clouds
2:00 PM - - - N/A% - - North - - N/A   Unknown
3:00 PM 84.2 °F 88.4 °F 69.8 °F 62% 29.89 in 6.2 mi East 12.7 mph - N/A   Partly Cloudy
4:00 PM 84.2 °F 87.3 °F 68.0 °F 58% 29.86 in 6.2 mi East 11.5 mph - N/A   Partly Cloudy
5:00 PM 82 °F - 69 °F 57% 29.89 in 25 mi ESE 12.7 mph - -   Scattered Clouds
5:00 PM 82.4 °F 86.3 °F 69.8 °F 66% 29.89 in 6.2 mi East 11.5 mph - N/A   Partly Cloudy
6:00 PM 80.6 °F 83.9 °F 69.8 °F 70% 29.89 in 6.2 mi East 11.5 mph - N/A   Partly Cloudy
7:00 PM 78.8 °F - 71.6 °F 78% 29.89 in 6.2 mi East 10.4 mph - N/A   Partly Cloudy
8:00 PM 78 °F - 71 °F 73% 29.93 in 25 mi ESE 6.9 mph - -   Scattered Clouds
8:00 PM 78.8 °F - 71.6 °F 78% 29.92 in 6.2 mi ESE 8.1 mph - N/A   Partly Cloudy
9:00 PM 77.0 °F - 69.8 °F 78% 29.95 in 6.2 mi SE 6.9 mph - N/A   Partly Cloudy
10:00 PM 77.0 °F - 69.8 °F 78% 29.98 in 6.2 mi ESE 6.9 mph - N/A   Partly Cloudy
11:00 PM 77 °F - 71 °F 75% 29.97 in 25 mi SE 5.8 mph - -   Scattered Clouds
11:00 PM 77.0 °F - 71.6 °F 83% 29.95 in 6.2 mi ESE 8.1 mph - N/A   Partly Cloudy